Showing default

COSMOS 1827, 17582

Orbit data source: Space-Track

COSMOS 1827, 17582 is a payload satellite owned by UNKS (CIS) in LEO that was launched on Fri, 13 Mar 1987 UTC via a TSIKLON-3 launch vehicle from the Plesetsk Missile And Space Complex (PKMTR). Payload-class satellites include a variety of spacecraft equipped with specific instruments for various scientific and technological missions. These include communications satellites like Starlink; space stations such as the ISS; scientific satellites like the Hubble; Earth observation satellites from companies like Planet Labs, Umbra, and HawkEye 360; GPS; miniature CubeSats for education and research; and military/defense satellites.

Loading next visibility...
Identifier
17582, 1987-026A
Orbit
LEO
Last TLE update
21 hours ago
Origin
Manufacturer
NPO PM
Mission
Defense Communications
Bus & Motor
STRELA-3, Unknown motor
Mass
225 kg wet, 225 kg dry
Launch date (UTC)
1987-03-13 (38 years ago)
Launch vehicle
TSIKLON-3
Launch site
Plesetsk Missile And Space Complex (PKMTR)
Object type
Payload
Rocket body
Debris
Shape & HBR
Cyl, 1.6 m
Radar Cross Section
1.257 m², Medium (>0.1 m² and < 1m²)

Expand to show TLE details & history

TLE from 21 hours ago
0 COSMOS 1827
1 17582U 87026A   25128.38983243  .00000032  00000-0  11272-3 0  9995
2 17582  82.5669  91.9867 0012288   3.9412 356.1775 12.65001770761468
Epoch: 2025-05-08T09:21Z
Definitive object data (Epoch: 2025-05-08T09:21:21.521Z)
Latitude
-0.00007°
Longitude
85.186°
Altitude
1,395.56 km
Speed
7.166 km/s
True Right ascension
06h 07m 56s
True Declination
0° 00' 00"
Sunlit
Object was in daylight at TLE epoch
Visualization TLE readout
Latitude
34.66775°
Longitude
89.77362°
Altitude
1,398.816 km
Speed
7.167 km/s
Apparent Right ascension
04h 47m 02s
Apparent Declination
1° 55' 19"
Sunlit
Object is in daylight
Visualization observer readout
Local Sidereal Time
14:33:58
Azimuth
315.711° NNW
Elevation
-38.275°
Doppler factor
1
Orbital elements
Apogee altitude
1,409.242 km
Perigee altitude
1,390.127 km
Semi-major axis
7,777.822 km
Eccentricity
0.0012288
Inclination
82.5669°
RAAN
91.9867°
Arg. of periapsis
3.9412°
True anomaly
356.1681°
Mean anomaly
356.1775°
Eccentric anomaly
356.1728°
Mean motion
3.16414 °/min
BSTAR
0.00011272
Orbital period
113.77 mins
Loading maneuver chart data...
Loading SW <> Apogee altitude chart data...
Loading historical data...
Loading historical data...
Loading historical data...
Loading historical data...
Loading historical data...
Loading historical data...
Loading historical data...

COSMOS 1827 Visibility forecast

Observer location: undefined°, undefined°

Span
Click to sort rows by Start time (UTC) header in descending order
Start Az.
Max El. time (UTC)
Max El. Az.
Max El.
End time (UTC)
End Az.
15 mins2025-05-09 08:44:08.943Z2.152° NNE2025-05-09 08:52:08.943Z86.395° E38.615°2025-05-09 08:59:08.943Z151.474° SSE
12 mins2025-05-09 10:40:08.943Z328.624° NNW2025-05-09 10:46:08.943Z274.958° WNW27.219°2025-05-09 10:52:08.943Z222.33° SW
14 mins2025-05-09 21:31:08.943Z160.04° S2025-05-09 21:38:08.943Z82.688° E38.22°2025-05-09 21:45:08.943Z18.457° NNE
12 mins2025-05-09 23:27:08.943Z235.023° WSW2025-05-09 23:33:08.943Z292.546° NW27.822°2025-05-09 23:39:08.943Z345.83° N
|